Theta_e
340 337 334 332 338 343 342 341 340 338 332 333 335 337 338 337 336 335 334 333 333 334 333 331 331 330 330 327 328 328 324 322 325 325 322 322 326 321 321 322 320 321 320
339 337 334 333 336 342 341 339 339 336 334 336 337 338 336 335 335 333 333 332 332 332 332 330 329 329 329 329 327 327 323 326 323 322 321 325 321 321 323 321 320 322 326
338 338 336 330 333 335 338 337 337 335 335 336 337 336 334 334 333 332 331 330 330 331 330 328 330 329 328 327 324 324 324 322 319 320 324 320 321 322 320 321 322 321 323
335 338 338 329 329 326 326 328 331 335 336 336 336 335 334 334 333 331 330 329 329 330 328 326 328 326 325 323 322 324 321 321 320 322 321 319 321 320 320 322 321 319 321
336 337 337 330 331 331 333 335 335 336 335 336 335 334 333 334 332 331 329 329 328 329 329 327 325 324 322 321 321 321 319 319 320 319 318 319 319 324 324 321 322 323 323
338 337 334 332 332 332 334 335 335 336 336 336 334 332 334 332 330 329 329 330 330 328 326 324 323 322 321 320 319 319 318 318 318 317 317 319 319 322 323 321 320 320 318
338 338 336 335 333 332 333 334 335 335 336 334 332 332 331 330 329 328 327 329 327 326 326 324 323 322 320 319 319 319 317 318 317 318 319 323 318 318 319 317 315 316 316
338 338 338 336 335 334 334 333 333 334 335 333 332 331 330 328 328 327 327 327 325 324 323 323 322 321 319 319 318 316 317 317 316 318 317 320 319 318 317 316 315 317 316
337 336 337 337 336 335 334 332 333 334 334 332 331 330 329 328 327 326 326 325 323 323 323 322 321 320 319 318 316 314 317 315 317 318 317 316 318 318 316 315 316 316 316
338 337 335 336 338 336 333 333 334 334 333 332 330 329 328 327 326 325 326 325 322 323 322 321 320 319 319 316 316 314 316 315 316 317 316 318 324 319 317 314 313 316 313
338 338 337 336 336 336 335 334 334 334 332 331 328 328 328 328 327 327 327 324 320 319 321 320 319 317 316 316 316 314 316 316 316 316 320 320 319 317 316 314 313 315 313
338 338 337 336 335 334 335 334 334 334 332 330 328 326 327 327 326 325 326 322 319 319 320 318 317 316 318 317 316 315 316 316 316 318 316 316 318 315 315 313 313 316 313
338 338 337 336 338 334 334 334 334 333 331 329 326 323 324 325 325 325 326 323 324 322 322 320 319 318 318 317 316 316 316 315 316 315 315 315 315 315 315 313 311 313 312
338 338 337 337 336 334 333 334 333 332 332 329 326 323 323 324 325 325 324 325 325 323 322 320 318 317 317 316 316 315 316 315 316 315 314 315 314 316 314 313 313 311 311
339 339 337 335 335 333 333 333 332 332 331 329 327 324 322 323 324 323 323 323 323 321 320 318 317 316 316 316 316 315 315 316 315 315 315 314 314 315 314 313 313 312 310
339 339 337 336 335 334 332 332 332 331 330 330 327 325 323 322 323 322 322 322 321 320 319 318 317 317 316 316 315 315 314 315 316 315 315 314 313 314 313 313 314 312 312
338 339 337 337 335 334 332 331 331 331 330 330 328 326 323 322 319 320 321 321 319 319 318 317 317 317 316 316 316 315 315 315 315 316 314 313 313 314 313 313 312 312 312
338 338 337 336 334 333 332 331 330 330 330 329 329 327 325 323 319 317 320 320 319 318 318 318 318 317 317 316 316 315 315 314 314 314 314 314 313 312 313 312 312 312 312
337 337 337 335 334 334 332 331 330 330 329 328 329 327 326 323 320 316 319 319 319 318 317 317 317 317 317 316 316 315 315 315 314 313 313 313 313 311 311 312 311 310 311
335 336 336 335 335 334 333 331 331 330 330 328 328 327 327 324 321 314 316 318 318 317 317 317 317 316 317 316 315 314 314 314 314 313 313 313 312 312 310 311 310 311 311
329 334 335 335 335 334 332 331 331 330 329 328 328 327 327 325 322 315 316 317 317 317 317 318 317 316 315 315 314 314 314 313 313 314 314 313 313 312 311 311 311 309 310
301 313 332 335 334 334 333 332 331 330 329 328 328 328 326 326 324 317 313 317 317 317 317 318 317 316 316 314 316 316 317 315 313 314 314 314 313 312 312 311 311 311 310
297 299 308 321 334 334 333 332 330 330 330 329 329 328 328 327 326 321 312 315 317 317 317 319 318 317 316 314 315 316 314 313 309 310 312 314 314 313 313 312 311 311 311
295 297 303 320 332 333 332 331 330 329 330 330 329 328 328 327 327 325 319 312 316 316 318 319 319 317 316 316 314 314 310 310 312 313 310 310 311 312 313 312 312 311 311
294 295 298 310 330 332 332 332 330 329 330 330 329 329 329 328 327 329 326 320 316 317 318 319 320 317 316 316 315 313 311 311 311 311 314 313 310 310 310 310 311 311 311
293 294 296 302 321 331 332 331 331 329 330 329 329 330 330 329 329 328 328 326 324 319 319 319 321 321 317 315 314 314 313 311 311 311 312 314 314 314 312 312 311 310 310
Wind_Speed
20 22 24 23 21 23 25 27 28 27 26 24 24 24 25 26 25 21 20 21 21 21 21 22 23 24 25 26 26 27 28 27 28 28 26 26 28 26 24 24 25 25 24
26 23 26 24 23 24 25 28 28 28 26 24 25 25 26 23 21 24 22 22 21 21 22 24 23 25 25 26 26 27 27 27 28 26 26 27 25 24 24 25 24 25 24
28 24 26 26 25 26 28 29 28 27 25 25 26 25 24 20 23 23 22 21 21 22 24 24 25 26 25 26 25 25 25 27 25 25 23 24 24 24 25 24 26 23 24
31 26 25 29 28 28 29 29 27 25 25 25 26 24 22 21 22 22 23 20 21 21 23 22 25 25 24 24 25 24 24 22 24 20 25 22 22 24 23 22 23 23 23
31 28 27 29 28 28 27 28 27 25 26 26 24 22 19 20 22 23 24 21 19 20 22 21 23 24 24 24 22 22 23 23 22 23 21 21 21 20 21 24 23 23 24
29 31 32 30 28 28 27 27 28 28 27 25 22 19 19 20 23 24 22 22 22 20 20 21 21 23 24 22 22 24 23 22 21 19 21 20 22 19 24 22 22 23 24
28 28 33 31 29 28 28 25 26 26 25 22 20 19 20 22 25 22 21 20 21 19 19 20 20 22 23 24 22 20 19 21 19 19 19 19 21 19 19 21 20 18 20
29 29 28 31 31 29 27 27 26 23 24 20 19 20 21 23 24 22 22 20 20 19 18 19 19 20 21 22 23 21 24 21 18 19 18 17 19 20 19 19 19 20 20
30 33 31 27 30 30 28 28 26 22 23 21 20 21 21 22 20 21 22 18 19 19 19 17 18 19 20 22 23 22 23 20 17 17 17 16 18 19 19 18 17 19 19
28 29 33 30 26 26 28 28 27 24 21 21 20 22 21 20 19 20 21 18 18 18 20 19 19 18 20 23 24 22 22 18 15 16 15 17 17 18 17 16 16 16 17
26 26 29 29 29 25 25 27 27 26 24 21 19 22 21 17 17 18 18 18 18 20 19 20 19 20 21 23 22 20 18 14 14 14 14 17 16 15 15 14 15 15 16
28 27 28 26 28 27 25 29 27 26 22 19 18 19 16 17 16 17 18 18 19 20 17 17 19 20 16 15 17 17 13 14 14 12 13 13 13 13 14 15 13 14 13
30 28 27 30 28 28 27 30 28 26 21 19 19 20 18 17 17 17 18 17 16 18 15 15 16 12 13 13 14 13 14 12 12 12 11 12 12 12 12 13 12 12 11
30 29 28 28 30 27 27 27 28 26 24 18 20 20 19 17 18 17 18 18 17 15 16 13 12 13 13 12 13 14 12 11 11 11 11 10 11 11 11 10 11 11 10
23 25 27 28 30 28 29 29 29 24 26 21 19 19 21 18 18 18 18 18 16 17 16 14 13 13 12 12 12 12 12 10 10 10 9 10 8 10 9 8 9 9 9
23 23 27 27 28 27 30 29 29 29 28 25 19 19 21 18 18 19 20 18 18 17 16 14 13 12 11 10 10 10 11 10 9 9 8 8 10 9 7 7 8 8 8
29 27 32 28 27 26 29 30 32 32 30 28 23 20 21 20 22 21 20 20 20 19 18 15 13 10 10 9 10 9 10 10 9 8 7 7 7 8 7 7 7 7 7
22 26 31 32 32 32 30 28 30 25 26 27 26 23 22 21 21 24 22 21 20 19 17 14 12 12 11 9 9 9 9 8 8 8 8 7 7 7 9 7 7 8 8
22 22 28 28 33 34 30 30 29 24 26 22 25 24 23 22 23 25 24 24 26 20 17 13 14 14 13 10 9 8 8 8 8 8 8 9 9 8 9 10 11 9 10
19 25 28 29 32 35 31 29 27 27 22 23 23 24 25 24 24 26 27 29 29 21 17 14 13 15 12 11 9 8 8 8 9 10 10 10 10 10 10 10 10 11 15
11 23 30 32 32 36 33 29 27 27 26 27 25 25 26 25 25 25 26 31 30 23 21 18 15 16 12 12 8 6 8 11 12 13 13 13 13 13 13 12 11 12 13
31 22 21 33 35 40 37 31 26 27 29 30 29 26 25 28 27 26 27 30 31 23 23 21 20 16 12 16 8 5 4 8 16 18 17 17 16 15 16 16 15 15 14
33 34 24 16 30 34 33 27 22 24 21 27 27 27 30 29 29 28 30 33 33 30 27 26 24 23 18 18 18 6 3 4 3 6 17 19 19 19 19 19 19 19 19
34 35 26 16 26 34 34 32 30 29 21 27 21 27 30 30 29 30 30 35 37 34 28 28 26 24 21 19 18 21 13 4 2 2 4 10 18 22 22 22 21 22 22
32 35 31 19 16 33 36 37 34 31 31 26 27 30 30 29 30 33 33 33 32 33 34 32 28 31 31 22 22 15 18 11 10 10 7 7 7 13 19 23 23 22 23
30 34 35 25 9 28 40 37 34 33 29 25 28 28 28 30 33 33 33 38 39 34 29 31 33 33 36 35 32 24 17 9 16 14 12 14 14 13 14 16 19 23 24
Wind_Direction
164 160 163 157 146 138 143 146 146 146 142 136 130 129 126 122 118 117 114 110 111 107 107 107 102 100 102 102 102 98 98 99 98 94 91 91 89 86 86 88 90 88 87
155 155 161 157 150 143 143 145 144 145 142 136 134 133 127 125 124 114 112 108 107 108 109 105 106 107 104 103 103 101 100 101 98 94 93 92 89 87 88 89 90 94 85
151 154 158 156 151 148 147 145 143 144 142 140 138 134 129 126 117 115 111 111 111 110 109 109 107 107 105 102 104 106 101 103 99 98 96 91 90 92 91 94 90 89 85
152 154 156 157 153 150 146 145 145 144 144 143 141 139 138 124 123 119 114 112 114 111 111 112 112 111 110 112 104 103 106 100 104 93 93 94 94 96 95 96 95 93 94
153 155 157 158 155 151 147 146 146 147 147 146 145 144 135 128 126 125 120 118 117 116 115 115 115 116 115 115 107 111 107 105 101 100 98 97 101 98 101 102 93 92 94
154 156 161 160 156 151 148 149 149 151 150 149 147 141 130 129 127 127 123 122 119 118 119 119 115 115 117 111 112 110 108 106 105 98 99 99 105 98 93 102 91 86 84
156 158 160 160 157 154 152 154 153 153 153 151 145 135 135 133 134 135 128 130 125 125 120 120 119 118 116 113 114 112 117 111 104 103 104 102 105 105 99 95 93 94 90
156 158 161 161 157 155 158 158 154 157 154 151 141 138 135 137 141 137 132 135 133 132 129 124 123 122 119 119 117 114 117 111 106 106 107 106 104 103 103 102 99 97 98
158 162 162 161 161 161 162 159 156 160 156 152 142 139 140 141 143 139 137 141 140 134 131 126 125 123 122 122 124 123 120 112 108 110 109 107 114 108 105 104 94 100 98
159 163 164 165 162 160 162 161 159 162 161 155 146 145 145 143 143 143 148 153 141 135 132 128 130 126 126 123 121 125 125 108 109 109 108 113 102 111 110 105 103 103 99
159 164 165 166 167 164 160 164 164 163 162 160 151 149 145 140 140 141 145 150 141 134 130 130 134 130 122 125 126 128 124 115 112 109 116 122 109 108 111 110 109 112 109
164 167 167 167 170 170 163 165 167 167 166 157 153 154 146 148 148 142 147 153 144 136 136 134 134 135 125 129 131 130 125 126 117 115 120 112 117 120 121 120 116 105 111
168 169 168 170 171 173 169 171 172 172 172 165 164 163 157 149 149 144 147 151 151 139 137 136 139 140 140 140 138 134 132 128 125 120 130 130 121 126 124 127 124 123 120
173 171 170 173 173 174 176 174 179 178 181 168 176 170 166 161 160 155 156 161 162 157 154 152 148 146 144 145 141 139 140 134 135 129 132 135 132 134 128 131 133 136 130
178 178 175 177 178 177 182 178 182 181 184 183 181 178 179 170 166 164 162 167 171 165 161 155 153 149 150 150 148 145 146 144 138 142 145 144 132 144 139 142 144 140 144
187 187 184 183 182 179 184 185 183 188 190 192 188 185 185 179 175 171 169 172 170 166 166 161 159 160 155 159 157 157 149 151 157 150 148 162 164 156 157 158 163 160 160
190 187 189 187 185 185 190 191 192 195 195 194 192 191 189 191 186 178 174 174 172 173 173 170 171 170 161 164 168 168 164 161 168 170 168 165 184 186 168 182 182 186 188
197 192 192 189 187 191 194 195 196 189 194 201 196 193 195 195 194 185 181 178 176 173 173 179 188 179 177 177 176 180 178 175 180 187 197 192 194 198 206 205 210 209 207
212 200 195 191 190 194 195 196 200 194 197 197 202 197 198 199 198 194 187 186 185 182 190 200 195 190 184 182 186 189 193 194 196 207 212 217 219 220 222 224 220 225 231
225 211 204 201 197 198 196 195 196 200 199 205 210 204 201 203 202 198 194 193 190 187 192 194 192 189 188 183 185 200 206 210 219 223 227 229 233 231 226 228 233 238 230
260 220 209 206 201 199 193 189 187 195 196 207 213 212 208 204 205 205 198 195 194 192 195 200 191 187 185 180 173 209 231 232 233 232 232 234 238 239 236 235 234 238 246
350 357 231 214 204 201 202 201 192 192 198 210 220 219 211 209 208 208 202 198 201 199 201 201 197 184 192 190 196 198 232 237 240 236 234 235 238 242 244 241 240 239 242
350 344 322 299 212 200 203 199 187 194 206 211 209 220 222 215 212 211 209 205 206 208 209 209 204 198 192 198 203 210 191 238 260 220 233 236 239 241 245 247 245 245 243
344 341 333 316 223 207 205 199 188 190 201 208 206 214 219 216 214 215 215 212 213 212 213 216 213 205 199 197 204 218 227 216 251 273 234 240 242 244 247 248 249 248 246
345 340 339 331 236 208 207 204 193 190 204 205 200 210 212 220 217 218 221 221 219 218 220 219 216 214 216 208 206 203 221 227 234 239 277 262 256 259 254 252 250 251 249
346 342 343 343 13 215 214 210 203 205 206 205 205 211 212 219 222 219 219 223 226 225 222 224 225 225 223 219 223 217 213 206 215 226 237 260 267 266 262 263 262 260 256